Probability
0 0 0 0 0 0 0 0 0 0 0 0 0 0 0 0 0 0 0 0 0 0 0 0 0 0 0 0 0 0 0 16 74 97 100 100 81 16 0 0 0 0 0 0
0 0 0 0 0 0 0 0 0 0 0 0 0 0 0 0 0 0 0 0 0 0 0 0 0 0 0 0 0 0 0 0 48 97 97 74 16 0 0 0 0 0 0 0
0 0 0 0 0 0 0 0 0 0 0 0 0 0 0 0 0 0 0 0 0 0 0 0 0 0 0 0 0 0 0 0 29 74 61 0 0 0 0 0 0 0 0 0
0 0 0 0 0 0 0 0 0 0 0 0 0 0 0 0 0 0 0 0 0 0 0 0 0 0 0 0 0 0 0 0 26 42 29 0 0 0 0 0 0 0 0 0
0 0 0 0 0 0 0 0 0 0 0 0 0 0 0 0 0 0 0 0 0 0 0 0 0 0 0 0 0 0 0 3 3 6 3 0 0 0 0 0 0 0 0 0
0 0 0 0 0 0 0 0 0 0 0 0 0 0 0 0 0 0 0 0 0 0 0 0 0 0 0 0 0 0 0 0 0 0 0 0 0 0 0 0 0 0 0 0
0 0 0 0 0 0 0 0 0 0 0 0 0 0 0 0 0 0 0 0 0 0 0 0 0 0 0 0 0 0 0 0 0 0 0 0 0 0 0 0 0 0 0 0
0 0 0 0 0 0 0 0 0 0 0 0 0 0 0 0 0 0 0 0 0 0 0 0 0 0 0 0 0 0 0 0 0 0 0 0 0 0 0 0 0 0 0 0
0 0 0 0 0 0 0 0 0 0 0 0 0 0 0 0 0 0 0 0 0 0 0 0 0 0 0 0 0 0 0 0 0 0 0 0 0 0 0 0 0 0 0 0
0 0 0 0 0 0 0 0 0 0 0 0 0 0 0 0 0 0 0 0 0 0 0 0 0 0 0 0 0 0 0 0 0 0 0 0 0 0 0 0 0 0 0 0
0 0 0 0 0 0 0 0 0 0 0 0 0 0 0 0 0 0 0 0 0 0 0 0 0 0 0 0 0 0 0 0 0 0 0 0 0 0 0 0 0 0 0 0
0 0 0 0 0 0 0 0 0 0 0 0 0 0 0 0 0 0 0 0 0 0 0 0 0 0 0 0 0 0 0 0 0 0 0 0 0 0 0 0 0 0 0 0
0 0 0 0 0 0 0 0 0 0 0 0 0 0 0 0 0 0 0 0 0 0 0 0 0 0 0 0 0 0 0 0 0 0 0 0 0 0 0 0 0 0 0 0
0 0 0 0 0 0 0 0 0 0 0 0 0 0 0 0 0 0 0 0 0 0 0 0 0 0 0 0 0 0 0 0 0 0 0 0 0 0 0 0 0 0 0 0
0 0 0 0 0 0 0 0 0 0 0 0 0 0 0 0 0 0 0 0 0 0 0 0 0 0 0 0 0 0 0 0 0 0 0 0 0 0 0 0 0 0 0 0
0 0 0 0 0 0 0 0 0 0 0 0 0 0 0 0 0 0 0 0 0 0 0 0 0 0 0 0 0 0 0 0 0 0 0 0 0 0 0 0 0 0 0 0
0 0 0 0 0 0 0 0 0 0 0 0 0 0 0 0 0 0 0 0 0 0 0 0 0 0 0 0 0 0 0 0 0 0 0 0 0 0 0 0 0 0 0 0
0 0 0 0 0 0 0 0 0 0 0 0 0 0 0 0 0 0 0 0 0 0 0 0 0 0 0 0 0 0 0 0 0 0 0 0 0 0 0 0 0 0 0 0
0 0 0 0 0 0 0 0 0 0 0 0 0 0 0 0 0 0 0 0 0 0 0 0 0 0 0 0 0 0 0 0 0 0 0 0 0 0 0 0 0 0 0 0
0 0 0 0 0 0 0 0 0 0 0 0 0 0 0 0 0 0 0 0 0 0 0 0 0 0 0 0 0 0 0 0 0 0 0 0 0 0 0 0 0 0 0 0
0 0 0 0 0 0 0 0 0 0 0 0 0 0 0 0 0 0 0 0 0 0 0 0 0 0 0 0 0 0 0 0 0 0 0 0 0 0 0 0 0 0 0 0
0 0 0 0 0 0 0 0 0 0 0 0 0 0 0 0 0 0 0 0 0 0 0 0 0 0 0 0 0 0 0 0 0 0 0 0 0 0 0 0 0 0 0 0
0 0 0 0 0 0 0 0 0 0 0 0 0 0 0 0 0 0 0 0 0 0 0 0 0 0 0 0 0 0 0 0 0 0 0 0 0 0 0 0 0 0 0 0
0 0 0 0 0 0 0 0 0 0 0 0 0 0 0 0 0 0 0 0 0 0 0 0 0 0 0 0 0 0 0 0 0 0 0 0 0 0 0 0 0 0 0 0
0 0 0 0 0 0 0 0 0 0 0 0 0 0 0 0 0 0 0 0 0 0 0 0 0 0 0 0 0 0 0 0 0 0 0 0 0 0 0 0 0 0 0 0
0 0 0 0 0 0 0 0 0 0 0 0 0 0 0 0 0 0 0 0 0 0 0 0 0 0 0 0 0 0 0 0 0 0 0 0 0 0 0 0 0 0 0 0
Height
5665 5671 5677 5681 5686 5690 5693 5698 5701 5704 5707 5711 5716 5719 5721 5722 5725 5727 5728 5730 5731 5733 5735 5737 5740 5742 5744 5746 5748 5750 5752 5755 5757 5760 5761 5762 5763 5765 5767 5770 5771 5771 5772 5772
5661 5666 5671 5675 5680 5685 5688 5692 5695 5698 5701 5705 5709 5712 5714 5715 5717 5719 5720 5721 5723 5724 5725 5727 5729 5732 5735 5737 5739 5741 5743 5747 5749 5752 5754 5754 5756 5757 5760 5761 5763 5763 5764 5764
5656 5662 5666 5672 5677 5681 5684 5687 5690 5693 5696 5698 5701 5705 5708 5709 5710 5711 5712 5712 5713 5714 5715 5717 5718 5721 5725 5728 5729 5731 5734 5737 5740 5743 5744 5747 5749 5751 5752 5753 5754 5755 5756 5757
5652 5657 5663 5668 5673 5676 5680 5682 5686 5688 5690 5693 5695 5695 5703 5703 5701 5700 5700 5700 5701 5702 5703 5705 5707 5710 5713 5717 5719 5721 5724 5726 5730 5733 5736 5739 5742 5743 5744 5744 5746 5747 5748 5749
5650 5655 5661 5666 5670 5673 5676 5679 5681 5682 5683 5686 5687 5685 5693 5691 5690 5687 5684 5684 5685 5687 5689 5691 5693 5696 5700 5703 5707 5710 5712 5715 5720 5724 5727 5730 5733 5735 5736 5736 5738 5739 5740 5741
5648 5654 5659 5663 5667 5670 5672 5674 5675 5675 5676 5678 5677 5674 5682 5680 5673 5668 5666 5665 5665 5666 5668 5672 5676 5681 5685 5689 5693 5697 5700 5704 5709 5713 5717 5721 5724 5726 5727 5728 5730 5731 5732 5733
5647 5652 5656 5660 5664 5666 5667 5669 5669 5668 5668 5669 5665 5663 5669 5666 5657 5651 5647 5646 5645 5644 5644 5648 5654 5662 5668 5673 5678 5683 5687 5693 5698 5702 5707 5711 5714 5717 5719 5720 5721 5723 5724 5725
5644 5650 5653 5656 5659 5660 5661 5662 5662 5660 5658 5657 5654 5651 5653 5649 5643 5635 5628 5625 5624 5622 5622 5625 5631 5639 5648 5655 5661 5668 5674 5680 5686 5691 5696 5700 5704 5708 5710 5711 5713 5715 5716 5717
5642 5646 5650 5652 5654 5655 5655 5655 5655 5652 5649 5646 5644 5641 5638 5634 5627 5620 5613 5606 5604 5602 5602 5604 5610 5617 5625 5634 5643 5652 5660 5667 5673 5679 5684 5688 5694 5698 5700 5702 5705 5707 5708 5708
5639 5643 5646 5647 5648 5648 5648 5648 5647 5644 5640 5636 5634 5628 5623 5616 5609 5605 5598 5592 5588 5587 5586 5587 5591 5597 5604 5613 5623 5634 5645 5653 5661 5667 5673 5679 5685 5688 5690 5693 5696 5698 5699 5699
5636 5639 5642 5643 5642 5642 5643 5643 5639 5636 5633 5628 5622 5620 5613 5604 5597 5591 5585 5580 5576 5574 5573 5573 5576 5579 5584 5593 5604 5618 5629 5639 5648 5656 5664 5670 5674 5678 5682 5685 5688 5689 5690 5690
5633 5636 5638 5638 5637 5637 5637 5636 5633 5630 5626 5618 5612 5611 5604 5593 5585 5579 5574 5569 5565 5563 5562 5562 5564 5565 5570 5578 5589 5603 5616 5627 5638 5648 5655 5660 5665 5669 5673 5677 5679 5681 5681 5682
5631 5633 5634 5633 5634 5633 5632 5630 5627 5623 5618 5611 5604 5602 5595 5584 5575 5569 5563 5559 5555 5553 5552 5552 5554 5556 5560 5568 5579 5592 5606 5619 5630 5638 5645 5651 5656 5662 5666 5669 5671 5673 5673 5674
5628 5630 5631 5631 5629 5629 5629 5627 5622 5617 5612 5606 5599 5591 5586 5575 5565 5559 5554 5549 5546 5545 5543 5544 5546 5549 5554 5562 5574 5587 5601 5612 5622 5630 5637 5643 5650 5655 5659 5662 5664 5665 5665 5666
5625 5626 5626 5625 5625 5624 5623 5621 5618 5613 5608 5602 5595 5586 5578 5568 5559 5552 5546 5542 5539 5538 5537 5538 5541 5545 5551 5561 5572 5585 5596 5606 5615 5624 5631 5638 5645 5649 5653 5655 5657 5657 5658 5658
5622 5623 5623 5622 5622 5621 5620 5618 5615 5611 5605 5598 5591 5583 5574 5564 5555 5548 5541 5537 5535 5534 5534 5536 5539 5544 5552 5562 5573 5583 5594 5603 5612 5621 5628 5635 5640 5643 5646 5648 5650 5650 5650 5650
5618 5619 5620 5619 5619 5619 5618 5616 5612 5608 5602 5596 5589 5583 5573 5564 5555 5547 5541 5537 5534 5534 5535 5537 5542 5548 5557 5566 5575 5585 5594 5603 5612 5619 5625 5630 5634 5636 5640 5642 5643 5644 5643 5642
5615 5616 5616 5617 5618 5617 5618 5613 5610 5606 5601 5596 5589 5582 5574 5566 5558 5551 5544 5540 5538 5538 5540 5543 5548 5555 5563 5571 5579 5587 5596 5604 5611 5616 5621 5625 5628 5632 5635 5636 5637 5636 5635 5633
5612 5613 5614 5615 5615 5615 5614 5611 5608 5605 5602 5597 5590 5584 5578 5571 5565 5558 5552 5547 5545 5546 5548 5551 5556 5562 5569 5576 5583 5590 5597 5603 5609 5614 5617 5622 5625 5628 5630 5630 5630 5628 5626 5624
5610 5611 5613 5613 5613 5613 5613 5610 5607 5606 5601 5598 5592 5587 5582 5577 5572 5567 5562 5558 5556 5556 5557 5560 5565 5570 5575 5581 5587 5592 5598 5603 5608 5612 5616 5619 5621 5622 5623 5622 5622 5620 5618 5615
5608 5609 5610 5610 5610 5611 5611 5609 5607 5606 5603 5598 5594 5590 5586 5582 5578 5575 5570 5568 5566 5566 5567 5569 5572 5576 5580 5585 5589 5594 5598 5602 5606 5610 5612 5614 5615 5616 5616 5615 5614 5612 5610 5607
5605 5607 5608 5608 5609 5611 5609 5607 5606 5605 5601 5598 5595 5593 5589 5586 5583 5580 5577 5576 5575 5575 5575 5577 5579 5582 5585 5588 5592 5595 5598 5601 5604 5607 5608 5610 5610 5611 5610 5609 5608 5605 5602 5598
5602 5604 5605 5607 5608 5607 5606 5605 5605 5603 5601 5598 5596 5594 5592 5590 5587 5585 5583 5582 5581 5581 5582 5583 5584 5587 5589 5592 5595 5598 5600 5602 5603 5605 5606 5606 5607 5606 5605 5603 5600 5597 5593 5588
5599 5600 5601 5602 5603 5604 5604 5603 5603 5602 5600 5598 5596 5595 5593 5592 5590 5588 5587 5586 5586 5585 5586 5587 5588 5590 5592 5594 5596 5598 5600 5601 5602 5603 5603 5603 5602 5600 5598 5595 5592 5588 5583 5578
5594 5595 5597 5598 5600 5600 5601 5601 5601 5600 5598 5597 5596 5595 5594 5592 5591 5590 5590 5589 5589 5589 5589 5590 5591 5593 5594 5596 5597 5598 5599 5600 5600 5600 5599 5598 5596 5593 5590 5587 5583 5578 5573 5568
5588 5590 5592 5594 5595 5597 5598 5598 5598 5598 5597 5596 5595 5594 5593 5592 5591 5591 5591 5591 5591 5591 5591 5592 5593 5594 5595 5596 5597 5597 5598 5597 5597 5596 5594 5592 5589 5586 5582 5578 5574 5569 5564 5558
Wind_Speed
34 36 35 35 37 39 41 40 39 39 40 41 40 39 39 38 37 37 38 40 41 41 41 40 39 38 39 41 42 41 39 34 33 33 35 38 40 42 42 41 40 40 39 38
31 31 32 34 35 35 35 35 35 36 37 40 40 39 39 38 38 39 40 42 43 44 45 44 43 41 40 41 43 44 44 41 38 35 36 38 39 40 41 41 41 40 39 39
28 28 29 29 28 29 29 31 31 32 33 35 38 39 38 39 40 41 43 44 45 47 48 48 48 47 44 43 44 45 46 46 44 40 40 39 38 39 40 40 40 40 40 39
25 24 24 23 22 23 24 25 26 27 30 33 37 41 40 41 44 47 49 51 51 52 53 53 52 51 49 47 46 46 47 48 48 45 43 41 40 41 41 41 39 39 39 38
21 20 19 19 19 20 21 22 25 28 32 36 38 44 44 47 50 53 56 58 59 59 59 58 58 56 55 52 50 48 48 48 48 48 47 44 42 42 43 42 39 39 38 38
20 18 17 17 18 20 22 24 28 32 36 39 43 48 46 49 53 56 59 62 64 66 66 65 63 62 60 58 55 52 50 48 47 49 49 47 44 44 44 43 41 40 39 39
18 17 17 18 19 21 24 28 32 36 39 42 45 48 44 46 51 55 59 60 62 65 68 70 68 66 64 61 59 56 53 49 47 48 49 48 45 44 44 44 42 41 40 40
18 17 17 19 21 24 28 31 35 39 41 41 44 47 45 47 51 55 59 60 59 60 63 66 67 66 65 63 61 59 56 50 47 48 48 49 46 43 44 44 43 41 41 41
19 18 19 21 24 27 31 33 36 39 42 44 45 47 48 48 50 52 54 55 54 53 55 57 59 60 60 61 62 61 58 52 48 48 49 49 46 43 44 44 43 42 42 42
20 20 21 23 26 29 32 33 34 38 42 44 45 47 47 47 50 50 49 48 47 46 46 48 50 52 54 57 60 60 58 53 50 48 49 48 45 44 44 43 42 41 42 42
20 21 21 23 27 29 30 31 34 37 39 42 45 45 43 45 47 46 44 42 41 41 40 41 42 44 48 53 58 59 57 53 49 47 47 46 45 45 43 41 40 40 42 42
20 20 20 23 27 28 28 29 32 35 37 40 43 44 38 42 44 43 39 36 37 37 37 37 37 40 44 49 54 56 55 51 46 45 45 45 46 44 42 40 39 40 41 41
18 18 19 23 25 25 24 26 29 31 34 36 40 41 37 40 41 39 35 34 35 35 35 35 34 35 39 44 49 51 50 46 42 42 43 44 44 42 40 38 38 39 39 39
17 17 19 21 23 19 17 19 23 27 31 35 36 40 36 37 38 36 33 32 31 31 30 29 28 30 34 38 43 45 44 41 40 40 42 42 41 39 37 36 36 36 36 36
16 16 17 19 17 14 14 16 20 23 28 33 34 35 35 34 34 32 29 27 26 25 22 20 21 24 30 34 38 39 39 38 38 38 38 37 35 34 33 32 33 33 33 34
15 14 15 15 12 11 11 13 17 21 27 31 32 31 32 31 30 28 24 21 17 14 12 12 15 21 26 30 33 35 35 34 33 33 32 30 29 28 28 29 30 31 32 34
13 13 13 12 10 8 8 11 16 21 26 29 30 29 29 28 27 23 17 12 6 4 4 9 14 19 23 27 30 31 30 29 28 26 25 25 25 25 27 29 30 31 33 36
12 12 11 9 8 7 7 10 16 21 24 28 27 26 26 27 25 20 14 9 5 6 9 13 17 20 23 25 26 26 25 24 23 22 22 24 26 28 28 28 30 32 35 37
12 11 10 8 6 6 6 10 14 18 22 25 26 25 24 24 23 21 17 15 14 15 17 19 20 21 22 22 22 21 21 20 19 20 22 25 26 26 28 31 33 34 36 37
13 12 11 9 7 7 7 10 13 17 20 23 23 23 22 22 22 20 19 18 18 19 20 20 20 20 20 19 19 19 18 19 20 22 23 24 26 28 29 30 31 32 33 35
14 13 12 10 9 9 9 11 13 15 17 19 21 21 20 20 19 18 17 16 17 17 18 18 19 18 18 17 17 18 20 21 23 24 24 24 24 24 25 27 28 31 34 36
16 15 13 12 11 11 11 12 13 14 15 16 17 18 18 17 16 16 14 13 12 13 13 14 15 15 15 16 15 16 18 18 18 18 18 18 19 21 23 26 29 32 35 38
18 17 16 15 14 13 13 13 13 14 14 14 14 14 14 14 13 12 12 11 9 8 8 8 10 11 12 12 12 12 13 13 13 13 15 17 19 22 25 28 31 34 36 38
20 20 18 17 16 15 14 14 14 14 13 13 12 12 12 11 10 9 9 8 8 8 8 7 7 6 6 6 5 5 6 7 10 13 16 18 21 24 27 30 32 34 36 38
21 21 21 19 18 17 16 15 14 13 12 11 10 10 10 10 8 6 5 5 6 6 7 7 8 7 5 3 1 4 6 9 12 14 17 20 23 26 29 31 33 36 38 39
23 23 22 20 19 17 16 15 14 12 11 9 8 9 10 10 8 5 3 2 2 3 3 4 3 2 0 2 4 6 9 11 14 17 20 23 26 28 30 33 35 37 38 40
Wind_Direction
227 229 231 233 234 236 238 239 242 244 244 241 238 238 240 240 242 244 245 246 248 251 253 254 253 252 251 251 253 254 256 255 256 256 258 261 263 265 267 269 271 272 272 273
226 228 229 232 234 237 241 242 242 243 244 244 242 241 243 245 246 247 247 248 249 250 252 254 254 252 251 250 251 251 253 253 253 254 255 257 261 266 270 271 273 274 274 274
222 223 227 231 234 237 238 239 240 243 245 248 248 244 247 251 254 255 255 253 252 251 251 253 254 254 252 251 250 250 250 252 251 251 253 256 261 265 270 272 273 273 274 275
216 216 219 222 224 227 231 238 243 248 251 253 256 255 250 257 260 261 260 258 256 255 254 253 253 253 253 252 251 250 249 250 251 251 252 255 258 262 266 269 272 273 274 275
199 200 204 210 220 231 240 247 255 260 263 263 265 267 262 267 268 268 268 265 261 258 256 254 254 253 252 252 250 249 249 250 249 249 251 253 255 258 262 267 271 272 273 275
187 189 202 215 230 243 252 258 264 267 269 271 273 275 274 278 280 279 277 274 271 266 262 258 254 252 251 250 249 248 249 250 249 248 249 251 253 255 259 264 267 270 272 275
190 196 213 227 241 252 260 266 270 272 273 276 279 282 283 284 286 286 284 281 277 273 269 264 258 253 250 248 247 247 247 248 247 247 248 250 250 252 256 260 264 267 271 274
203 212 227 242 252 260 266 271 276 279 282 284 286 289 292 292 291 290 288 285 280 275 270 266 262 256 251 247 245 244 244 245 244 244 244 246 248 249 253 257 261 264 268 273
218 229 242 253 262 267 271 276 280 284 286 287 289 293 296 298 296 295 293 289 282 275 269 265 261 256 251 246 242 240 240 240 240 240 241 243 245 247 250 254 258 262 266 270
232 243 251 263 269 272 277 283 287 289 292 294 296 300 307 307 304 301 297 290 282 275 270 266 262 255 247 240 236 234 234 235 236 237 238 240 242 245 248 252 256 261 265 269
241 253 262 268 272 277 283 289 291 293 296 299 304 307 313 306 304 302 296 288 281 275 270 265 261 253 242 233 228 226 227 229 231 234 236 237 240 243 247 251 256 260 264 269
246 258 267 272 276 283 289 291 292 295 300 305 309 312 314 306 304 302 296 288 280 275 268 264 258 250 240 228 220 218 220 223 226 229 231 234 238 242 246 251 256 260 265 271
250 261 269 277 282 286 289 291 295 303 311 315 316 318 317 309 306 303 295 287 281 276 270 265 256 247 236 223 213 209 212 216 220 223 227 232 237 241 246 252 257 263 268 273
252 263 272 277 281 282 283 292 306 317 322 324 326 323 323 314 310 305 297 290 285 279 273 264 252 241 228 214 204 201 205 209 214 219 225 231 236 241 248 254 260 265 269 274
255 265 272 275 277 286 303 319 328 331 333 333 334 331 330 324 319 313 304 294 287 280 274 262 243 229 212 200 195 195 198 204 210 217 224 230 236 243 249 255 260 266 271 276
256 261 263 267 273 290 314 331 341 346 345 344 341 340 337 335 331 325 318 309 296 281 268 244 222 209 195 190 188 190 195 201 209 217 224 231 237 244 249 254 260 268 274 279
254 253 255 262 275 296 324 344 355 357 355 353 352 350 350 350 346 343 339 332 311 270 214 191 186 183 180 179 182 186 192 200 208 216 224 230 236 240 246 253 265 272 277 279
245 245 247 254 275 303 330 350 356 358 358 358 357 357 1 3 5 8 13 27 68 115 139 149 155 159 165 171 176 182 190 197 205 215 221 227 235 238 246 259 268 272 275 279
239 239 241 247 267 294 326 350 357 1 2 3 4 5 10 14 20 29 42 63 87 107 121 131 139 148 156 162 169 177 185 193 204 215 223 231 235 248 258 263 269 275 280 284
235 238 241 246 260 282 320 340 350 356 1 6 10 12 17 22 27 36 50 69 87 103 116 125 133 139 145 152 160 170 182 193 206 218 227 236 246 254 262 271 278 282 285 287
238 238 242 249 263 282 305 326 342 351 358 2 9 12 16 20 27 34 46 66 83 99 113 124 131 137 145 154 167 180 193 203 214 225 236 246 257 268 275 280 283 285 288 290
239 240 244 252 267 281 299 316 332 344 351 357 4 9 13 19 25 29 39 57 76 95 109 126 139 151 163 174 188 200 210 220 231 242 256 267 273 277 280 283 286 289 291 293
243 244 247 255 267 282 295 307 320 332 342 349 357 4 6 12 19 27 37 50 68 88 106 131 151 166 179 189 202 218 231 242 252 262 270 276 279 282 285 288 291 293 295 297
246 248 252 258 268 280 290 298 308 319 330 339 349 356 358 1 10 23 37 50 64 85 97 106 129 154 170 182 200 222 241 256 266 273 278 282 285 289 291 294 295 297 299 301
250 250 254 259 266 274 282 289 296 306 317 327 339 348 350 351 356 5 23 48 66 83 95 95 96 101 109 126 214 267 275 279 281 283 287 290 292 294 296 298 300 301 302 303
248 249 253 258 262 267 273 277 283 291 300 312 327 340 344 343 338 333 344 18 87 99 109 120 120 125 199 274 281 286 287 288 289 291 294 296 298 300 301 303 303 304 305 306